Lid_Strength_Index
0 -0 0 1 1 1 1 1 1 1 1 1 1 1 1 1 1 1 1 1 1 1 1 1 0 0 1 5 4 1 -2 -1 0 2 3 4 5 6 8 8 7 8 7 7 6 6 7
-0 -0 0 1 1 1 1 1 1 1 1 1 1 2 2 1 1 1 1 1 1 1 1 1 0 1 3 6 1 1 1 1 2 3 4 4 5 5 6 7 8 6 7 7 7 7 6
0 0 1 1 1 1 1 1 1 1 1 1 2 2 2 1 1 1 1 1 1 1 1 1 0 1 4 4 2 2 1 2 2 2 4 4 4 5 5 7 6 6 9 8 7 7 9
0 1 0 1 1 1 1 1 1 1 2 2 2 2 2 2 2 1 1 1 1 1 1 1 1 2 5 1 2 1 2 2 1 2 3 3 3 5 6 5 6 8 9 12 8 8 8
1 1 1 1 1 1 1 1 1 2 2 2 2 2 2 2 2 2 2 2 1 1 1 1 2 4 6 1 2 2 2 2 2 2 3 2 4 6 6 9 10 10 13 11 10 8 9
1 1 1 1 1 1 0 1 2 2 2 2 2 2 2 2 2 1 1 2 1 1 1 0 1 5 3 4 3 2 3 2 3 4 4 5 7 9 10 11 15 13 12 10 12 10 9
1 1 1 0 1 1 0 1 2 2 2 2 2 2 2 2 2 2 1 2 5 5 4 6 6 5 4 3 2 4 3 4 4 5 8 7 10 12 11 10 9 10 11 12 11 8 9
1 1 1 0 1 1 0 1 2 2 2 2 2 2 2 2 2 2 4 4 4 3 8 3 4 4 3 3 5 5 4 6 6 9 8 9 11 9 8 8 9 10 11 11 10 8 9
1 2 1 1 1 1 1 1 1 2 2 2 2 2 2 3 2 2 3 4 1 1 8 5 4 4 4 4 6 6 5 6 7 8 9 10 9 7 8 9 10 11 11 11 11 9 9
2 2 1 1 1 1 1 1 1 2 2 2 2 2 2 3 2 2 4 1 1 2 11 8 5 4 3 4 5 4 5 6 6 9 9 9 7 9 9 9 10 12 9 9 10 11 14
2 2 1 1 2 2 2 2 2 2 2 2 2 2 2 4 2 4 3 1 1 3 19 6 6 4 4 6 6 6 5 6 9 9 9 9 10 10 10 10 9 10 8 9 10 12 13
2 2 2 2 2 2 2 2 2 2 2 3 3 2 2 2 2 2 1 1 3 13 20 8 5 6 6 6 6 6 6 5 6 8 9 9 8 9 9 8 8 8 9 9 10 12 17
2 1 2 2 2 2 2 2 3 3 3 3 4 4 2 0 4 1 1 4 13 17 7 9 8 6 7 8 7 7 7 9 10 13 12 9 10 9 7 9 8 9 12 18 18 18 19
1 2 2 2 2 2 2 3 3 3 3 3 4 5 1 1 1 1 3 9 18 10 9 7 7 7 9 8 8 8 8 10 8 9 12 13 15 9 7 9 11 11 12 17 21 21 18
1 2 2 2 2 2 2 3 3 3 3 3 5 2 2 1 1 1 6 14 14 10 8 8 7 9 10 8 9 8 10 10 9 9 13 14 13 8 7 7 9 10 14 10 15 16 18
2 2 2 2 2 2 2 3 3 3 3 3 4 3 3 1 1 3 9 11 9 7 6 7 10 9 11 10 10 10 10 8 8 7 8 10 15 9 8 7 8 9 8 15 15 21 21
2 2 2 2 2 3 2 2 3 3 3 5 3 6 2 1 1 6 12 11 8 7 6 8 9 10 10 10 10 10 10 8 7 7 7 9 12 12 9 10 12 11 12 12 12 15 20
3 2 2 2 2 2 2 2 3 3 3 3 4 9 2 2 8 9 11 7 8 6 5 6 7 8 10 9 10 11 11 9 6 7 10 8 11 16 12 8 7 9 10 11 17 18 16
3 3 3 2 2 2 2 2 3 3 3 5 6 6 2 3 12 12 8 7 7 7 7 7 8 7 7 10 13 10 9 6 7 7 9 9 13 17 14 11 9 11 10 10 11 15 16
3 3 2 2 2 2 2 2 2 3 3 3 6 12 6 5 6 8 9 9 9 6 6 6 7 7 8 10 9 10 9 7 6 7 7 8 11 14 17 14 11 13 11 10 12 18 16
3 3 3 2 2 2 2 2 2 3 3 3 5 8 7 11 9 8 8 8 9 9 6 6 8 8 9 12 11 11 9 8 7 7 7 8 14 12 11 11 10 11 11 11 12 12 15
3 3 3 3 2 2 2 2 3 3 3 3 7 8 6 8 7 8 9 9 9 8 8 8 9 8 8 11 10 13 10 10 10 8 9 9 14 14 14 11 11 13 11 11 11 11 11
3 3 3 3 2 2 2 4 3 3 4 4 4 4 6 8 9 10 10 8 8 7 7 6 7 8 11 9 7 7 7 7 8 9 11 11 14 16 16 13 13 17 13 12 11 10 11
2 2 2 2 2 2 3 3 3 3 3 4 3 4 12 12 12 9 7 7 7 7 9 6 6 9 7 4 5 7 8 8 8 8 8 13 15 15 16 16 20 12 8 9 10 10 9
3 2 2 2 2 2 4 3 3 3 3 3 2 4 9 13 9 8 8 8 7 7 8 7 5 5 5 7 13 14 14 14 12 9 9 9 14 15 17 17 14 12 10 11 12 12 9
2 3 2 2 3 3 2 3 2 3 3 2 2 2 7 12 10 6 8 8 11 11 10 8 5 4 5 13 13 17 19 15 14 11 8 10 12 14 16 19 20 14 9 7 7 15 8
3 3 3 3 3 3 3 3 3 3 3 2 3 1 4 10 7 6 9 9 7 8 12 9 8 10 7 13 14 14 17 12 17 18 17 16 16 17 19 17 15 10 8 7 16 14 8
3 3 3 3 3 3 3 3 3 3 3 2 2 1 3 8 6 5 5 7 7 7 12 8 9 11 12 14 14 14 14 15 16 13 15 16 17 16 17 16 18 7 8 13 9 7 6
3 3 3 4 3 3 3 4 4 4 3 3 3 0 1 5 5 2 2 2 3 4 6 7 8 8 9 14 14 14 14 14 14 15 11 14 12 15 13 15 9 7 8 6 6 6 6